[[{"header":{"parameterUnit":"m.s-1","parameterCategory":1,"la1":30.2991,"la2":30.254,"lo1":-89.0895,"lo2":-89.0444,"dy":0.0017,"dx":0.0017,"nx":28,"ny":28,"refTime":"2024-03-29T09:00:00:Z","depth":0,"parameterNumber":2,"parameterNumberName":"U-component_of_WINDS"},"data":[0,0,0,0,0,0,0,0,0,0,0,0,0,0,0,0,0,0,0,0,0,0,0,0,0,0,0,0,0,0,0,0,0,0,0,0,0,0,0,0,0,0,0,0,0,0,0,0,0,0,0,0,0,0,0,0,0,0,-3.9421,-3.9421,0,-3.9465,-3.9465,-3.9466,-3.9415,-3.9413,-3.9412,-3.941,-3.9454,-3.9457,-3.946,0,0,0,0,0,0,0,0,0,0,0,0,0,-3.9295,-3.9298,-3.9421,-3.9421,-3.9422,-3.9465,-3.9465,-3.9466,-3.9416,-3.9413,-3.9411,-3.9409,-3.9453,-3.9456,-3.946,0,0,0,0,0,0,0,0,0,0,0,0,0,-3.9345,-3.9298,-3.9421,-3.9402,-3.9401,-3.9465,-3.9465,-3.9466,-3.9416,-3.9413,-3.9411,-3.9408,-3.9452,-3.9456,-3.946,-3.9544,0,0,-3.9474,-3.9476,0,0,0,0,0,0,0,0,-3.9343,-3.935,-3.9404,-3.9404,-3.9402,-3.9432,-3.9437,-3.9492,-3.9417,-3.941,-3.941,-3.9406,-3.9449,-3.9453,-3.9468,-3.9546,-3.9548,-3.9474,-3.9477,-3.9479,-3.948,0,0,0,0,0,0,0,-3.9339,-3.9348,-3.9438,-3.9405,-3.9404,-3.9392,-3.9396,-3.9447,-3.9445,-3.9411,-3.9407,-3.9413,-3.9448,-3.9464,-3.9468,-3.9549,-3.9474,-3.9478,-3.9481,-3.9483,-3.97,-3.9703,0,0,0,0,0,0,-3.9338,-3.9345,-3.9437,-3.9439,-3.9365,-3.9397,-3.9401,-3.9425,-3.9444,-3.9444,-3.9415,-3.9411,-3.9457,-3.9463,-3.947,-3.9569,-3.9479,-3.9483,-3.9485,-3.9697,-3.9701,-3.9704,0,0,0,0,0,0,-3.9335,-3.9346,-3.9435,-3.9392,-3.9402,-3.9402,-3.9429,-3.9427,-3.9443,-3.9448,-3.9447,-3.9432,-3.9455,-3.9463,-3.9527,-3.957,-3.9485,-3.9489,-3.9693,-3.9698,-3.9703,-3.9769,0,0,0,0,0,0,-3.9332,-3.9346,-3.9377,-3.9393,-3.9404,-3.9491,-3.9432,-3.943,-3.9451,-3.9445,-3.9463,-3.9463,-3.9454,-3.952,-3.9531,-3.9574,-3.9492,-3.9689,-3.9696,-3.9701,-3.9762,-3.9775,-3.9786,0,0,0,0,0,-3.9327,-3.9393,-3.9379,-3.939,-3.9443,-3.9493,-3.95,-3.9488,-3.9455,-3.9486,-3.949,-3.9463,-3.9564,-3.9527,-3.9539,-3.9584,-3.9687,-3.9694,-3.9701,-3.9757,-3.9773,-3.9785,0,0,0,0,0,0,-3.9382,-3.9395,-3.9379,-3.9452,-3.9472,-3.9485,-3.9524,-3.9504,-3.9534,-3.9527,-3.9511,-3.9515,-3.9582,-3.959,-3.9548,-3.9667,-3.962,-3.963,-3.9659,-3.9674,-3.9685,-3.968,-3.9496,0,0,0,0,0,-3.9403,-3.9442,-3.9451,-3.9515,-3.9526,-3.9524,-3.9545,-3.9534,-3.9554,-3.9562,-3.957,-3.9591,-3.9627,-3.9651,-3.9685,-3.9765,-3.9768,-3.9802,-3.9814,-3.9823,-3.9831,-3.9874,-3.9889,-3.9728,-3.9728,-3.9727,0,0,-3.9445,-3.9457,-3.9482,-3.9526,-3.954,-3.9581,-3.9531,-3.9576,-3.9607,-3.9569,-3.9628,-3.9636,-3.9658,-3.973,-3.9762,-3.9738,-3.9877,-3.9832,-3.984,-3.9842,-3.9883,-3.9898,-3.9912,-3.9732,-3.9732,-3.9731,0,0,-3.9543,-3.9556,-3.9611,-3.9627,-3.965,-3.9649,-3.9662,-3.9679,-3.9682,-3.9742,-3.9715,-3.9752,-3.9815,-3.9832,-3.9849,-3.9958,-3.9934,-3.997,-4.0029,-4.0072,-4.0084,-4.0095,-4.0133,-4.0147,-3.9978,-3.9978,-3.9979,0,-3.9592,-3.9653,-3.9641,-3.9689,-3.9709,-3.9679,-3.9734,-3.9751,-3.9783,-3.9798,-3.9772,-3.9852,-3.9865,-3.994,-3.9967,-3.9983,-3.9997,-3.9966,-4.0084,-4.0095,-4.0105,-4.0141,-4.0155,-3.9982,-3.9982,-3.9982,-3.9981,0,-3.9713,-3.9756,-3.9797,-3.983,-3.9856,-3.9907,-3.9904,-3.9931,-3.992,-3.9921,-3.9984,-3.9999,-4.0036,-4.0054,-4.0042,-4.0129,-4.0113,-4.0086,-4.0037,-4.0125,-4.0158,-4.0172,-3.9988,-3.9987,-3.9986,-3.9985,0,0,-3.9842,-3.987,-3.9886,-3.9901,-3.9926,-3.9959,-4.001,-4.0047,-4.007,-4.0096,-4.0138,-4.0194,-4.017,-4.0189,-4.018,-4.0218,-4.0303,-4.0186,-4.0186,-4.0206,-4.0398,-4.0417,-4.0433,-4.0289,-4.0291,-4.0294,-4.0396,0,-3.9939,-4.0027,-4.0019,-4.0103,-4.0143,-4.0117,-4.0161,-4.0182,-4.0186,-4.0221,-4.0226,-4.0266,-4.0231,-4.0243,-4.0279,-4.0285,-4.0341,-4.0278,-4.0327,-4.0329,-4.032,-4.0451,-4.047,-4.0566,-4.0409,-4.0412,-4.0413,0,-4.0063,-4.0093,-4.0181,-4.0201,-4.0218,-4.0258,-4.0292,-4.0326,-4.035,-4.035,-4.0374,-4.036,-4.0412,-4.0366,-4.0438,-4.0395,-4.0416,-4.0422,-4.0426,-4.0427,-4.0374,-4.0455,-4.0597,-4.061,-4.0434,-4.0432,-4.0431,0,-4.0147,-4.021,-4.0271,-4.0285,-4.0311,-4.034,-4.0352,-4.0373,-4.0396,-4.0427,-4.0442,-4.0478,-4.0497,-4.0526,-4.0523,-4.0489,-4.0596,-4.0549,-4.0598,-4.0598,-4.0618,-4.0617,-4.0764,-4.0636,-4.0636,-4.0635,-4.0635,0,-4.0255,-4.0309,-4.0309,-4.0346,-4.0406,-4.0399,-4.0459,-4.0468,-4.0488,-4.0527,-4.0508,-4.0544,-4.0538,-4.0576,-4.0574,-4.0634,-4.0643,-4.0645,-4.0643,-4.0645,-4.0645,-4.0656,-4.0649,-4.0639,-4.0638,-4.0638,-4.0637,0,-4.0357,-4.0359,-4.0423,-4.0444,-4.045,-4.0494,-4.0512,-4.0547,-4.0551,-4.0601,-4.0612,-4.0619,-4.0662,-4.0662,-4.0711,-4.071,-4.0783,-4.0775,-4.0775,-4.0773,-4.0821,-4.0815,-4.0978,-4.0999,-4.086,-4.0861,-4.0862,0,-4.0424,-4.0466,-4.0491,-4.0516,-4.053,-4.0571,-4.0595,-4.059,-4.0616,-4.0648,-4.068,-4.0722,-4.0755,-4.0826,-4.0835,-4.0873,-4.0864,-4.0919,-4.0869,-4.0871,-4.0863,-4.086,-4.0864,-4.0927,-4.0929,-4.093,-4.0931,0,-4.0544,-4.0543,-4.0579,-4.0616,-4.0645,-4.0674,-4.07,-4.0722,-4.0721,-4.0752,-4.0796,-4.0822,-4.0873,-4.0915,-4.0953,-4.0965,-4.0948,-4.0948,-4.096,-4.0961,-4.0959,-4.096,-4.0799,-4.0943,-4.0942,-4.0941,-4.094,-4.094,-4.0629,-4.0665,-4.0689,-4.073,-4.075,-4.0776,-4.081,-4.082,-4.0857,-4.0898,-4.0894,-4.0944,-4.0969,-4.1018,-4.1034,-4.1074,-4.1054,-4.1073,-4.1078,-4.1082,-4.1087,-4.0956,-4.1081,-4.108,-4.108,-4.108,-4.108,0,-4.0746,-4.0761,-4.0799,-4.0837,-4.087,-4.0853,-4.0882,-4.091,-4.0954,-4.0979,-4.1013,-4.1065,-4.1106,-4.112,-4.1161,-4.1189,-4.1183,-4.12,-4.1196,-4.12,-4.1102,-4.1086,-4.1205,-4.1205,-4.1205,-4.1205,-4.1205,-4.1205,-4.0811,-4.087,-4.0874,-4.0944,-4.0959,-4.1007,-4.1025,-4.105,-4.107,-4.1128,-4.1163,-4.1172,-4.1193,-4.1236,-4.1273,-4.1276,-4.1291,-4.1312,-4.1311,-4.1219,-4.1206,-4.1194,-4.1179,-4.1315,-4.1316,-4.1406,-4.1406,-4.1407]},{"header":{"parameterUnit":"m.s-1","parameterCategory":1,"la1":30.2991,"la2":30.254,"lo1":-89.0895,"lo2":-89.0444,"dy":0.0017,"dx":0.0017,"nx":28,"ny":28,"refTime":"2024-03-29T09:00:00:Z","depth":0,"parameterNumber":3,"parameterNumberName":"V-component_of_WINDS"},"data":[0,0,0,0,0,0,0,0,0,0,0,0,0,0,0,0,0,0,0,0,0,0,0,0,0,0,0,0,0,0,0,0,0,0,0,0,0,0,0,0,0,0,0,0,0,0,0,0,0,0,0,0,0,0,0,0,0,0,4.0175,4.0175,0,4.0215,4.0216,4.0216,4.0259,4.0259,4.026,4.026,4.0299,4.0299,4.03,0,0,0,0,0,0,0,0,0,0,0,0,0,4.0132,4.0133,4.0175,4.0175,4.0176,4.0215,4.0216,4.0216,4.0258,4.0259,4.026,4.0261,4.0298,4.0299,4.03,0,0,0,0,0,0,0,0,0,0,0,0,0,4.0159,4.0133,4.0175,4.0202,4.0204,4.0215,4.0216,4.0216,4.0258,4.0259,4.026,4.0261,4.0298,4.0299,4.03,4.0286,0,0,4.0302,4.0302,0,0,0,0,0,0,0,0,4.0158,4.0161,4.0197,4.02,4.0203,4.0233,4.0215,4.024,4.0258,4.0238,4.026,4.0261,4.0276,4.0278,4.0284,4.0288,4.0289,4.0302,4.0302,4.0303,4.0303,0,0,0,0,0,0,0,4.0156,4.0159,4.0191,4.0198,4.0201,4.0211,4.0216,4.022,4.0251,4.024,4.0243,4.0247,4.0278,4.0283,4.0285,4.029,4.0302,4.0302,4.0303,4.0303,4.0286,4.0285,0,0,0,0,0,0,4.015,4.0157,4.0189,4.0192,4.0182,4.0211,4.0217,4.0222,4.0251,4.0257,4.0246,4.0249,4.0282,4.0284,4.0287,4.0273,4.0303,4.0303,4.0304,4.0287,4.0286,4.0285,0,0,0,0,0,0,4.0149,4.0153,4.0188,4.0176,4.0181,4.0211,4.0217,4.0223,4.0228,4.0256,4.0262,4.0246,4.0282,4.0286,4.0286,4.0275,4.0303,4.0304,4.0288,4.0286,4.0285,4.0246,0,0,0,0,0,0,4.0148,4.0152,4.0147,4.0175,4.0181,4.0187,4.0216,4.0223,4.023,4.0234,4.0258,4.0263,4.0283,4.0285,4.0287,4.0277,4.0305,4.0289,4.0287,4.0286,4.0248,4.0244,4.0239,0,0,0,0,0,4.0146,4.0134,4.0147,4.015,4.0176,4.0187,4.019,4.0215,4.0229,4.0224,4.0243,4.0262,4.0276,4.0285,4.0287,4.0277,4.029,4.0288,4.0286,4.0251,4.0245,4.024,0,0,0,0,0,0,4.0102,4.0138,4.0153,4.0149,4.0165,4.0194,4.0189,4.0207,4.0218,4.0221,4.025,4.0256,4.0253,4.0265,4.0274,4.0266,4.0286,4.0284,4.0258,4.0253,4.0248,4.0245,4.0305,0,0,0,0,0,4.0092,4.0099,4.0129,4.0123,4.013,4.0158,4.0163,4.0181,4.0198,4.0204,4.0223,4.0237,4.0245,4.025,4.0258,4.0251,4.0257,4.0245,4.024,4.0237,4.0235,4.0232,4.0228,4.0278,4.0278,4.0278,0,0,4.0072,4.0092,4.0094,4.0115,4.0129,4.0134,4.0163,4.0167,4.0171,4.0204,4.0207,4.0221,4.0239,4.0236,4.0235,4.0246,4.0222,4.0234,4.0231,4.0231,4.023,4.0225,4.0221,4.0277,4.0277,4.0277,0,0,4.0037,4.0053,4.005,4.0064,4.0086,4.0105,4.0104,4.0131,4.0142,4.0145,4.017,4.0175,4.0188,4.02,4.0208,4.018,4.0198,4.0182,4.0158,4.0155,4.0151,4.0148,4.0138,4.0134,4.018,4.018,4.018,0,4.0008,4.0018,4.0046,4.0049,4.0058,4.009,4.0088,4.0099,4.0122,4.0127,4.0139,4.0157,4.0171,4.0172,4.0165,4.017,4.017,4.0179,4.015,4.0146,4.0144,4.0135,4.0131,4.0178,4.0178,4.0178,4.0178,0,3.9982,3.9988,3.9984,4.0007,4.0015,4.0015,4.0043,4.0047,4.0065,4.0082,4.0085,4.0104,4.0118,4.0119,4.0135,4.0122,4.0128,4.0144,4.0165,4.0136,4.0128,4.0125,4.0175,4.0175,4.0176,4.0176,0,0,3.992,3.996,3.9957,3.9969,3.9996,4.0001,4.0002,4.0017,4.0021,4.0036,4.0038,4.0049,4.0064,4.0073,4.0091,4.0089,4.0066,4.0106,4.0107,4.0098,4.0053,4.0041,4.0036,4.0079,4.0078,4.0078,4.0052,0,3.989,3.9896,3.9922,3.9921,3.9927,3.9958,3.996,3.9976,3.9993,4.0,4.0018,4.0026,4.0046,4.0051,4.0051,4.0069,4.0057,4.0071,4.0081,4.0081,4.0075,4.0032,4.0019,3.9994,4.0049,4.0048,4.0048,0,3.9856,3.987,3.987,3.9898,3.9901,3.9902,3.9919,3.9925,3.9944,3.9957,3.9968,3.9989,3.9992,4.0011,4.0016,4.0025,4.003,4.004,4.004,4.0041,4.0062,4.0033,3.9986,3.9982,4.0043,4.0044,4.0044,0,3.9811,3.983,3.9833,3.9841,3.9874,3.9874,3.9887,3.9908,3.9915,3.9929,3.9934,3.9948,3.9955,3.9965,3.9989,4.0,3.9991,4.0012,4.0001,4.0,3.9997,3.9997,3.995,4.0,4.0,4.0,4.0,0,3.9775,3.9774,3.9814,3.9815,3.9814,3.9844,3.9842,3.9859,3.9877,3.9881,3.9909,3.9912,3.9944,3.9951,3.997,3.9971,3.9974,3.9984,3.9989,3.9981,3.998,3.9985,3.9988,3.9999,4.0,4.0,4.0,0,3.9725,3.9752,3.9757,3.9788,3.9796,3.9794,3.982,3.9822,3.9841,3.9847,3.985,3.9879,3.9889,3.9914,3.993,3.9943,3.9939,3.9948,3.9933,3.9936,3.9924,3.9925,3.9879,3.9875,3.9927,3.9926,3.9926,0,3.9701,3.9701,3.9732,3.9738,3.9751,3.976,3.9768,3.9798,3.9805,3.9828,3.9827,3.984,3.9851,3.9866,3.9888,3.99,3.991,3.9893,3.9912,3.9905,3.991,3.991,3.991,3.9889,3.9888,3.9888,3.9887,0,3.9654,3.9668,3.968,3.9697,3.9706,3.972,3.9736,3.9739,3.9772,3.9779,3.979,3.9799,3.9817,3.9829,3.9845,3.9858,3.9878,3.9881,3.9879,3.9872,3.9863,3.9868,3.9922,3.9882,3.9882,3.9883,3.9883,3.9883,3.9617,3.9619,3.9642,3.9654,3.9669,3.9684,3.9688,3.9708,3.9718,3.9736,3.9752,3.9762,3.9782,3.9806,3.9817,3.9825,3.9835,3.9832,3.9832,3.9831,3.9828,3.9862,3.9828,3.9828,3.9828,3.9828,3.9829,0,3.9573,3.9589,3.9601,3.9623,3.9632,3.9652,3.967,3.9677,3.9685,3.9703,3.9714,3.9727,3.974,3.9763,3.9777,3.9779,3.9788,3.9781,3.9781,3.9784,3.9817,3.9818,3.9773,3.9773,3.9773,3.9773,3.9773,3.9773,3.9551,3.9555,3.9572,3.9584,3.9601,3.9612,3.962,3.9634,3.9648,3.9662,3.9673,3.9688,3.9708,3.9724,3.9736,3.9742,3.9746,3.9736,3.9746,3.9776,3.9782,3.9787,3.9787,3.9737,3.9737,3.9712,3.9712,3.9712]}]]